This demonstration page uses our WeatherBlox Daily Observations layout. Learn more.

Left ArrowRight Arrow

Hourly Observations for April 28, 2020

Temp ( °F °C ) Dew Point ( °F °C ) Humidity (%) Winds ( mph kmh ) Pressure ( in mb ) Visibility ( mi km ) Precip ( " mm )
12:52 am 00:52 Mostly Cloudy 66 18.9 54 12.2 65 65 S 13 20 29.77 1008 10 16 0.00 0.00
1:52 am 01:52 Mostly Cloudy 64 17.8 54 12.2 70 70 SSE 15 24 29.75 1008 10 16 0.00 0.00
2:52 am 02:52 Mostly Cloudy 62 16.7 54 12.2 75 75 S 10 17 29.74 1007 10 16 0.00 0.00
3:52 am 03:52 Mostly Cloudy 62 16.7 54 12.2 75 75 S 12 19 29.73 1007 10 16 0.00 0.00
4:52 am 04:52 Mostly Cloudy 61 16.1 54 12.2 78 78 S 13 20 29.73 1007 10 16 0.00 0.00
5:52 am 05:52 Mostly Cloudy 61 16.1 54 12.2 78 78 S 9 15 29.72 1006 10 16 0.00 0.00
6:52 am 06:52 Cloudy with Light Rain 62 16.7 54 12.2 75 75 S 9 15 29.71 1006 10 16 0.00 0.00
7:52 am 07:52 Cloudy 62 16.7 55 12.8 78 78 SSW 8 13 29.72 1006 10 16 0.00 0.00
8:52 am 08:52 Cloudy 63 17.2 55 12.8 76 76 SSW 8 13 29.72 1007 10 16 0.00 0.00
9:52 am 09:52 Cloudy 67 19.4 54 12.2 63 63 W 10 17 29.71 1006 10 16 0.00 0.00
10:52 am 10:52 Mostly Cloudy 69 20.6 49 9.4 49 49 WNW 20 31 29.71 1006 10 16 0.00 0.00
11:52 am 11:52 Mostly Cloudy 70 21.1 46 7.8 42 42 WNW 21 33 29.72 1006 10 16 0.00 0.00
12:52 pm 12:52 Mostly Cloudy 70 21.1 45 7.2 41 41 WNW 18 30 29.73 1007 10 16 0.00 0.00
1:52 pm 13:52 Mostly Cloudy 73 22.8 47 8.3 40 40 NNW 21 33 29.73 1007 10 16 0.00 0.00
2:52 pm 14:52 Partly Cloudy 73 22.8 47 8.3 40 40 NW 21 33 29.77 1008 10 16 0.00 0.00
3:52 pm 15:52 Partly Cloudy 72 22.2 47 8.3 41 41 NNW 25 41 29.77 1008 10 16 0.00 0.00
4:52 pm 16:52 Mostly Cloudy 69 20.6 44 6.7 41 41 N 23 37 29.77 1008 10 16 0.00 0.00
5:52 pm 17:52 Mostly Cloudy 68 20 44 6.7 42 42 NNW 22 35 29.78 1009 10 16 0.00 0.00
6:19 pm 18:19 Cloudy with Blowing Dust 67 19.4 45 7.2 45 45 NW 30 48 29.79 1009 7 11 0.00 0.00
6:52 pm 18:52 Mostly Cloudy with Blowing Dust 62 16.7 43 6.1 50 50 NNW 30 48 29.81 1009 7 11 0.00 0.00
7:52 pm 19:52 Mostly Cloudy with Light Rain 59 15 42 5.6 54 54 NW 24 39 29.80 1009 10 16 0.00 0.00
8:52 pm 20:52 Mostly Cloudy 55 12.8 43 6.1 64 64 NW 15 24 29.85 1011 10 16 0.00 0.00
9:52 pm 21:52 Cloudy 54 12.2 43 6.1 67 67 NNW 12 19 29.85 1011 10 16 0.00 0.00
10:52 pm 22:52 Partly Cloudy 53 11.7 43 6.1 69 69 WNW 15 24 29.83 1010 10 16 0.00 0.00
11:52 pm 23:52 Partly Cloudy 52 11.1 42 5.6 69 69 WNW 18 30 29.81 1010 10 16 0.00 0.00

Powered by AerisWeather